Location: Al Ma??m?d
(25.1360°N, 32.7791°E)
Time: 19:52:37
(UTC+00:00)

Daily predictions for brighter satellites

Satellite Brightness Start Highest point End
(mag) Time Altitude Azimuth Time Altitude Azimuth Time Altitude Azimuth
Cosmos 468 Rocket 4.0 16:39:19 10° N 16:44:31 73° ENE 16:49:44 10° SSE
Geosat 4.2 16:41:37 10° SE 16:46:27 53° ENE 16:51:20 10° NNW
Cosmos 1655 Rocket 4.0 16:44:30 10° N 16:50:45 85° E 16:56:57 10° S
Okean 3 Rocket 3.7 16:51:01 10° N 16:55:20 54° E 16:59:37 10° SSE
Delta 2 Rocket 4.4 16:56:52 10° SSW 17:01:40 36° SSE 17:06:00 10° E
SAR-Lupe-4 3.5 16:58:10 10° NNE 17:01:45 81° ESE 17:05:18 10° S
Okean-O 2.7 16:58:55 10° SSE 17:03:19 87° WSW 17:07:46 10° NNW
Cosmos 2221 2.5 16:59:17 10° S 17:03:30 65° E 17:07:46 10° NNE
ARGOS 3.3 16:58:54 10° S 17:04:15 80° WSW 17:09:37 10° NNW
Cosmos 1603 4.1 16:59:19 10° N 17:04:43 45° ENE 17:10:01 10° SE
Cosmos 1437 Rocket 4.0 17:02:18 10° SE 17:05:10 21° E 17:08:04 10° NE
GPS 2-18 Rocket1 4.1 17:04:20 10° SW 17:07:29 27° SSE 17:09:41 15° ESE
USA 229 DEB 4.0 17:09:39 10° NNW 17:17:16 81° ENE 17:25:00 10° SSE
USA 229 4.0 17:09:43 10° NNW 17:17:21 80° ENE 17:25:03 11° SSE
HJ-1C 4.4 17:14:54 10° S 17:18:04 46° W 17:21:17 10° NNW
Cosmos 1553 Rocket 4.1 17:13:37 10° SSE 17:19:25 49° E 17:25:18 10° NNE
NOSS 3-3 (A) 4.2 17:19:16 10° S 17:24:08 34° ESE 17:29:19 10° NE
NOSS 3-3 (C) 4.2 17:19:22 10° S 17:24:15 34° ESE 17:29:27 10° NE
MOS 1-B Rocket 4.1 17:18:17 10° NNE 17:25:09 66° E 17:31:05 10° S
Cosmos 1814 Rocket 4.2 17:21:02 10° N 17:26:02 48° ENE 17:29:25 19° SE
Cosmos 1766 Rocket 4.3 17:22:34 10° NNW 17:26:53 54° W 17:31:12 10° S
YAOGAN 1 4.4 17:23:34 10° SSW 17:27:23 31° W 17:31:13 10° NW
Cosmos 540 Rocket 3.5 17:23:17 10° NNW 17:28:24 83° WSW 17:33:30 10° S
ASC 2 Rocket 4.0 17:23:39 10° W 17:30:42 56° SSW 17:33:42 24° SE
Cosmos 968 Rocket 3.7 17:26:09 10° SSW 17:31:24 77° WNW 17:36:39 10° N
Cosmos 1844 Rocket 2.8 17:26:41 10° SSW 17:32:13 77° WNW 17:37:48 10° NNE
SJ-6B 3.2 17:31:20 27° SE 17:32:51 40° ENE 17:36:29 10° N
Lacrosse 5 rocket 2.8 17:29:44 10° NW 17:33:48 37° WSW 17:37:37 12° S
USA 186 1.2 17:33:18 41° SE 17:34:02 66° E 17:36:36 10° N
NOSS 3-1 (A) 4.3 17:27:45 10° NNW 17:36:05 84° WSW 17:44:22 13° SSE
Resurs 01 Rocket 3.6 17:37:57 14° ENE 17:37:57 14° ENE 17:39:54 10° NE
Cosmos 1606 2.6 17:35:17 10° S 17:39:01 88° W 17:42:47 10° N
ASTRO E2 3.5 17:35:28 10° WNW 17:39:15 42° NNE 17:41:13 24° ENE
Cosmos 1943 3.2 17:35:53 10° NNW 17:41:32 83° WSW 17:45:58 17° SSE
Cosmos 1486 Rocket 4.2 17:37:51 10° SSW 17:43:08 76° WNW 17:48:28 10° N
H-II Stage 2 4.4 17:16:45 10° WNW 17:46:09 41° SW 17:50:14 18° SSE
CSL-04 Rocket 4.5 17:44:48 10° S 17:49:52 49° W 17:55:00 10° NNW
Intercosmos 24 4.0 17:52:30 36° SSE 17:54:01 57° E 17:57:39 10° NNE
Cosmos 1844 4.3 17:49:46 10° SSW 17:55:25 59° WNW 18:01:03 10° N
Helios 1A Rocket 4.1 17:53:11 12° S 17:56:40 42° W 18:00:35 10° NNW
Fermi 4.4 17:54:36 10° W 17:58:24 38° SSW 17:58:40 38° S
SL-08 ROCKET BODY 4.3 17:53:22 10° N 17:59:11 66° E 18:01:45 34° SSE
IRS-1A Rocket 4.3 18:00:06 37° SE 18:02:21 64° ENE 18:08:04 10° N
SL-4 R/B 4.1 17:59:39 10° N 18:02:50 18° NE 18:03:26 18° NE
OBJECT-B 1.3 18:04:14 51° SW 18:04:34 54° W 18:07:44 10° NNW
ATLAS 5 CENTAUR R/B 4.4 18:01:39 10° NNE 18:04:42 14° NE 18:05:36 13° ENE
Delta 198 4.5 18:01:32 10° WSW 18:08:27 69° SSE 18:10:54 41° E
Cosmos 2084 3.2 18:04:43 10° SSW 18:08:47 87° WNW 18:12:56 10° NNE
Cosmos 921 Rocket 4.3 18:05:17 10° NNW 18:09:07 35° W 18:11:22 20° SSW
Mugunghwa Rocket 4.0 18:05:25 10° WSW 18:11:43 63° SSE 18:13:46 44° ESE
Meteor 1-26 Rocket 4.3 18:12:05 50° ESE 18:12:52 54° E 18:18:21 10° NNE
GPS 2-04 Rocket1 4.0 18:10:03 10° W 18:13:55 38° NNW 18:15:33 26° NNE
GPS 2-17 Rocket1 3.9 18:10:39 10° WSW 18:14:20 37° SSW 18:14:20 37° SSW
Cosmos 1242 Rocket 3.6 18:18:38 38° N 18:18:38 38° N 18:20:56 10° N
Intercosmos 25 Rocket 3.5 18:14:46 10° N 18:18:57 69° N 18:18:57 69° N
USA 267 4.2 18:16:18 22° S 18:19:58 38° SW 18:25:58 10° WNW
Cosmos 883 Rocket 4.4 18:25:22 48° S 18:27:16 80° E 18:33:36 10° N
Cosmos 1805 Rocket 3.8 18:24:05 10° N 18:27:46 64° N 18:27:46 64° N
Cosmos 1386 Rocket 4.3 18:23:15 10° N 18:29:18 78° E 18:30:14 64° SSE
Resurs 1-3 4.0 18:34:17 58° W 18:34:17 58° W 18:38:27 10° NNW
CZ-2C R/B 4.1 18:31:22 10° N 18:34:53 55° N 18:34:53 55° N
Cosmos 1745 Rocket 3.9 18:32:32 10° N 18:38:42 83° W 18:39:43 64° S
Cosmos 1709 Rocket 4.3 18:35:31 10° N 18:40:34 49° NE 18:40:34 49° NE
Delta 2 Rocket 4.4 18:39:14 10° WSW 18:43:31 50° NW 18:43:31 50° NW
Ariane Rocket 3.8 18:44:58 41° WSW 18:45:41 43° W 18:50:29 10° NNW
Haruka 4.1 18:37:48 10° WNW 18:45:42 37° SW 18:45:42 37° SW
Cosmos 2315 Rocket 4.0 18:46:49 68° SSW 18:47:41 84° W 18:54:04 10° N
Milstar 3 3.8 18:38:27 10° WSW 18:54:49 89° NNW 18:58:43 42° ENE
Meteor 1-20 Rocket 4.4 18:50:09 10° N 18:55:02 67° NW 18:55:02 67° NW
Cosmos 2278 Rocket 3.2 19:08:22 38° N 19:08:22 38° N 19:11:48 10° NNE
Resurs 01 Rocket 3.7 19:15:31 26° WNW 19:15:31 26° WNW 19:17:52 10° NNW
IUS R/B (1) 4.2 18:40:47 10° W 19:19:39 73° N 19:20:29 66° NE
CZ-4C R/B 4.0 19:32:40 10° N 19:38:37 37° NE 19:38:37 37° NE
ATLAS 5 CENTAUR R/B 3.6 19:43:26 10° NNW 19:47:09 40° NNW 19:47:09 40° NNW
SL-16 R/B 4.5 22:55:34 23° NE 22:55:34 23° NE 22:58:46 10° NNE
CZ-2D R/B 4.4 23:31:03 10° N 23:32:27 18° N 23:32:27 18° N
Cosmos 2297 Rocket 4.5 23:42:01 10° NNE 23:46:01 19° ENE 23:48:33 15° E
ADEOS II 4.0 23:46:32 10° NNE 23:48:42 26° NNE 23:48:42 26° NNE
